| time (UTC) | temp F | wind direction | speed MPH | gust MPH | rain 1hr in | rain 24hr in | rain mn in | humidity % | barometer mb |
| 20260506192006 | 55 | 62 | 2.0 | 7.0 | 0.00 | 0.00 | 0.00 | 65 | 1011.7 |
| 20260506191505 | 55 | 69 | 2.0 | 5.0 | 0.00 | 0.00 | 0.00 | 64 | 1011.7 |
| 20260506191007 | 55 | 69 | 2.0 | 5.0 | 0.00 | 0.00 | 0.00 | 64 | 1011.7 |
| 20260506190006 | 55 | 71 | 2.0 | 7.0 | 0.00 | 0.00 | 0.00 | 64 | 1011.6 |
| 20260506182505 | 55 | 4 | 4.0 | 7.0 | 0.00 | 0.00 | 0.00 | 63 | 1011.1 |
| 20260506182006 | 56 | 37 | 3.0 | 6.0 | 0.00 | 0.00 | 0.00 | 63 | 1011.1 |
| 20260506181506 | 56 | 37 | 1.0 | 5.0 | 0.00 | 0.00 | 0.00 | 62 | 1011.0 |
| 20260506181006 | 56 | 37 | 1.0 | 6.0 | 0.00 | 0.00 | 0.00 | 62 | 1010.9 |
| 20260506175505 | 56 | 56 | 2.0 | 7.0 | 0.00 | 0.00 | 0.00 | 59 | 1010.6 |
| 20260506174006 | 56 | 60 | 3.0 | 5.0 | 0.00 | 0.00 | 0.00 | 55 | 1010.5 |
| 20260506173506 | 56 | 61 | 2.0 | 7.0 | 0.00 | 0.00 | 0.00 | 55 | 1010.4 |
| 20260506170005 | 57 | 53 | 4.0 | 8.0 | 0.00 | 0.00 | 0.00 | 52 | 1010.1 |
| 20260506165505 | 57 | 13 | 3.0 | 7.0 | 0.00 | 0.00 | 0.00 | 50 | 1010.1 |
| 20260506165006 | 57 | 344 | 3.0 | 7.0 | 0.00 | 0.00 | 0.00 | 50 | 1010.1 |
| 20260506153505 | 58 | 93 | 3.0 | 8.0 | 0.00 | 0.00 | 0.00 | 50 | 1010.0 |
| 20260506153005 | 59 | 95 | 2.0 | 6.0 | 0.00 | 0.00 | 0.00 | 48 | 1009.9 |
| 20260506152506 | 59 | 102 | 6.0 | 13.0 | 0.00 | 0.00 | 0.00 | 46 | 1009.9 |
| 20260506152006 | 59 | 82 | 2.0 | 7.0 | 0.00 | 0.00 | 0.00 | 45 | 1009.9 |
| 20260506151505 | 59 | 13 | 6.0 | 9.0 | 0.00 | 0.00 | 0.00 | 45 | 1009.9 |
| 20260506151006 | 59 | 16 | 5.0 | 13.0 | 0.00 | 0.00 | 0.00 | 45 | 1009.9 |
| 20260506145506 | 59 | 64 | 5.0 | 12.0 | 0.00 | 0.00 | 0.00 | 45 | 1009.7 |
| 20260506145006 | 59 | 82 | 5.0 | 13.0 | 0.00 | 0.00 | 0.00 | 44 | 1009.7 |
| 20260506144505 | 59 | 32 | 9.0 | 13.0 | 0.00 | 0.00 | 0.00 | 44 | 1009.7 |
| 20260506134005 | 59 | 56 | 6.0 | 13.0 | 0.00 | 0.00 | 0.00 | 47 | 1009.7 |
| 20260506133505 | 59 | 35 | 5.0 | 12.0 | 0.00 | 0.00 | 0.00 | 47 | 1009.6 |
| 20260506133005 | 59 | 15 | 5.0 | 9.0 | 0.00 | 0.00 | 0.00 | 48 | 1009.6 |
| 20260506132505 | 59 | 72 | 5.0 | 12.0 | 0.00 | 0.00 | 0.00 | 47 | 1009.6 |
| 20260506132005 | 59 | 64 | 6.0 | 12.0 | 0.00 | 0.00 | 0.00 | 46 | 1009.6 |
| 20260506131505 | 59 | 43 | 4.0 | 10.0 | 0.00 | 0.00 | 0.00 | 46 | 1009.6 |
| 20260506131005 | 59 | 71 | 5.0 | 12.0 | 0.00 | 0.00 | 0.00 | 47 | 1009.6 |
| 20260506130005 | 59 | 20 | 7.0 | 16.0 | 0.00 | 0.00 | 0.00 | 47 | 1009.6 |
| 20260506125504 | 59 | 65 | 6.0 | 10.0 | 0.00 | 0.00 | 0.00 | 47 | 1009.6 |
| 20260506124006 | 58 | 38 | 6.0 | 12.0 | 0.00 | 0.00 | 0.00 | 48 | 1009.6 |
| 20260506123505 | 58 | 7 | 7.0 | 12.0 | 0.00 | 0.00 | 0.00 | 49 | 1009.5 |
| 20260506123005 | 58 | 56 | 5.0 | 13.0 | 0.00 | 0.00 | 0.00 | 49 | 1009.4 |
| 20260506122504 | 58 | 15 | 6.0 | 10.0 | 0.00 | 0.00 | 0.00 | 50 | 1009.5 |
| 20260506122005 | 58 | 17 | 3.0 | 9.0 | 0.00 | 0.00 | 0.00 | 53 | 1009.5 |
| 20260506115004 | 59 | 354 | 6.0 | 15.0 | 0.00 | 0.00 | 0.00 | 53 | 1009.3 |
| 20260506114505 | 58 | 74 | 4.0 | 8.0 | 0.00 | 0.00 | 0.00 | 53 | 1009.4 |
| 20260506114005 | 58 | 13 | 5.0 | 12.0 | 0.00 | 0.00 | 0.00 | 50 | 1009.5 |
| 20260506113505 | 58 | 19 | 5.0 | 10.0 | 0.00 | 0.00 | 0.00 | 51 | 1009.5 |
| 20260506110005 | 56 | 347 | 5.0 | 8.0 | 0.00 | 0.00 | 0.00 | 64 | 1009.5 |
| 20260506105504 | 56 | 8 | 7.0 | 13.0 | 0.00 | 0.00 | 0.00 | 64 | 1009.5 |
| 20260506095004 | 57 | 0 | 5.0 | 14.0 | 0.00 | 0.00 | 0.00 | 64 | 1009.2 |
| 20260506094504 | 57 | 27 | 4.0 | 10.0 | 0.00 | 0.00 | 0.00 | 66 | 1009.1 |
| 20260506094004 | 56 | 35 | 5.0 | 20.0 | 0.00 | 0.00 | 0.00 | 66 | 1009.1 |
| 20260506093505 | 57 | 47 | 5.0 | 15.0 | 0.00 | 0.00 | 0.00 | 66 | 1009.1 |
| 20260506093005 | 57 | 354 | 6.0 | 12.0 | 0.00 | 0.00 | 0.00 | 66 | 1009.1 |
| 20260506092004 | 57 | 18 | 6.0 | 14.0 | 0.00 | 0.00 | 0.00 | 67 | 1009.1 |
| 20260506091504 | 57 | 32 | 6.0 | 13.0 | 0.00 | 0.00 | 0.00 | 66 | 1009.1 |
| 20260506091004 | 57 | 20 | 6.0 | 15.0 | 0.00 | 0.00 | 0.00 | 67 | 1009.0 |
| 20260506090004 | 56 | 61 | 5.0 | 14.0 | 0.00 | 0.00 | 0.00 | 68 | 1009.1 |
| 20260506085504 | 56 | 59 | 6.0 | 12.0 | 0.00 | 0.00 | 0.00 | 68 | 1009.0 |
| 20260506085005 | 56 | 63 | 7.0 | 10.0 | 0.00 | 0.00 | 0.00 | 69 | 1009.0 |
| 20260506084504 | 55 | 19 | 5.0 | 10.0 | 0.00 | 0.00 | 0.00 | 72 | 1009.0 |
| 20260506084009 | 55 | 6 | 7.0 | 12.0 | 0.00 | 0.00 | 0.00 | 72 | 1009.0 |
| 20260506083010 | 55 | 17 | 4.0 | 10.0 | 0.00 | 0.00 | 0.00 | 74 | 1009.0 |
| 20260506082508 | 54 | 16 | 5.0 | 12.0 | 0.00 | 0.00 | 0.00 | 74 | 1009.0 |
| 20260506073508 | 54 | 25 | 5.0 | 12.0 | 0.00 | 0.00 | 0.00 | 76 | 1009.0 |
| 20260506072508 | 54 | 0 | 5.0 | 10.0 | 0.00 | 0.00 | 0.00 | 76 | 1009.0 |
| 20260506062008 | 52 | 1 | 6.0 | 12.0 | 0.00 | 0.00 | 0.00 | 80 | 1008.6 |
| 20260506061508 | 52 | 11 | 5.0 | 10.0 | 0.00 | 0.00 | 0.00 | 81 | 1008.6 |
| 20260506045007 | 50 | 4 | 6.0 | 12.0 | 0.00 | 0.00 | 0.00 | 83 | 1008.6 |
| 20260506044507 | 50 | 353 | 7.0 | 10.0 | 0.00 | 0.00 | 0.00 | 83 | 1008.6 |
| 20260506041508 | 50 | 5 | 4.0 | 9.0 | 0.00 | 0.00 | 0.00 | 83 | 1008.6 |
| 20260506041008 | 50 | 355 | 4.0 | 12.0 | 0.00 | 0.00 | 0.00 | 82 | 1008.6 |
| 20260506035008 | 49 | 4 | 4.0 | 9.0 | 0.00 | 0.00 | 0.00 | 82 | 1008.7 |
| 20260506033507 | 49 | 2 | 5.0 | 10.0 | 0.00 | 0.00 | 0.00 | 82 | 1008.9 |
| 20260506033008 | 49 | 355 | 6.0 | 9.0 | 0.00 | 0.00 | 0.00 | 83 | 1008.9 |
| 20260506032507 | 49 | 358 | 5.0 | 9.0 | 0.00 | 0.00 | 0.00 | 83 | 1008.9 |
| 20260506031008 | 49 | 339 | 5.0 | 9.0 | 0.00 | 0.00 | 0.00 | 83 | 1009.0 |
| 20260506025007 | 49 | 13 | 4.0 | 7.0 | 0.00 | 0.00 | 0.00 | 84 | 1009.1 |
| 20260506024508 | 49 | 355 | 4.0 | 7.0 | 0.00 | 0.00 | 0.00 | 84 | 1009.1 |
| 20260506024008 | 49 | 11 | 3.0 | 8.0 | 0.00 | 0.00 | 0.00 | 84 | 1009.1 |
| 20260506023507 | 49 | 1 | 3.0 | 7.0 | 0.00 | 0.00 | 0.00 | 84 | 1009.1 |
| 20260506023008 | 49 | 3 | 5.0 | 8.0 | 0.00 | 0.00 | 0.00 | 84 | 1009.1 |
| 20260506015507 | 48 | 1 | 6.0 | 10.0 | 0.00 | 0.00 | 0.00 | 84 | 1009.2 |
| 20260506015007 | 48 | 0 | 6.0 | 10.0 | 0.00 | 0.00 | 0.00 | 84 | 1009.3 |
| 20260506014507 | 48 | 7 | 5.0 | 12.0 | 0.00 | 0.00 | 0.00 | 84 | 1009.2 |
| 20260506014007 | 48 | 350 | 5.0 | 12.0 | 0.00 | 0.00 | 0.00 | 84 | 1009.2 |
| 20260506013507 | 48 | 355 | 5.0 | 10.0 | 0.00 | 0.00 | 0.00 | 84 | 1009.3 |
| 20260506012007 | 48 | 15 | 5.0 | 12.0 | 0.00 | 0.00 | 0.00 | 84 | 1009.3 |
| 20260506011507 | 48 | 11 | 4.0 | 8.0 | 0.00 | 0.00 | 0.00 | 84 | 1009.3 |
| 20260506011007 | 48 | 0 | 5.0 | 9.0 | 0.00 | 0.00 | 0.00 | 84 | 1009.3 |
| 20260506010007 | 48 | 3 | 6.0 | 10.0 | 0.00 | 0.00 | 0.00 | 84 | 1009.5 |
| 20260506005506 | 48 | 0 | 4.0 | 9.0 | 0.00 | 0.00 | 0.00 | 84 | 1009.6 |
| 20260506005007 | 48 | 13 | 3.0 | 8.0 | 0.00 | 0.00 | 0.00 | 84 | 1009.6 |
| 20260506003506 | 48 | 4 | 3.0 | 9.0 | 0.00 | 0.00 | 0.00 | 83 | 1009.6 |
| 20260506003008 | 48 | 328 | 5.0 | 12.0 | 0.00 | 0.00 | 0.00 | 83 | 1009.7 |
| 20260506002508 | 48 | 352 | 7.0 | 12.0 | 0.00 | 0.00 | 0.00 | 83 | 1009.7 |
| 20260505235007 | 48 | 357 | 5.0 | 10.0 | 0.00 | 0.00 | 0.00 | 81 | 1010.0 |
| 20260505234506 | 48 | 351 | 4.0 | 9.0 | 0.00 | 0.00 | 0.00 | 81 | 1010.0 |
| 20260505234007 | 48 | 358 | 5.0 | 9.0 | 0.00 | 0.00 | 0.00 | 81 | 1010.1 |
| 20260505233506 | 48 | 356 | 3.0 | 9.0 | 0.00 | 0.00 | 0.00 | 81 | 1010.1 |
| 20260505232507 | 48 | 355 | 4.0 | 8.0 | 0.00 | 0.00 | 0.00 | 80 | 1010.1 |
| 20260505232007 | 48 | 3 | 5.0 | 10.0 | 0.00 | 0.00 | 0.00 | 80 | 1010.1 |
| 20260505231506 | 48 | 358 | 5.0 | 9.0 | 0.00 | 0.00 | 0.00 | 79 | 1010.1 |
| 20260505231007 | 49 | 3 | 5.0 | 17.0 | 0.00 | 0.00 | 0.00 | 79 | 1010.2 |
| 20260505230007 | 49 | 1 | 5.0 | 10.0 | 0.00 | 0.00 | 0.00 | 78 | 1010.2 |
| 20260505225507 | 49 | 2 | 5.0 | 12.0 | 0.00 | 0.00 | 0.00 | 78 | 1010.3 |
| 20260505225007 | 49 | 3 | 4.0 | 8.0 | 0.00 | 0.00 | 0.00 | 78 | 1010.3 |
| 20260505221507 | 49 | 9 | 5.0 | 12.0 | 0.00 | 0.00 | 0.00 | 78 | 1010.5 |
| 20260505221007 | 49 | 4 | 6.0 | 12.0 | 0.00 | 0.00 | 0.00 | 78 | 1010.5 |
| 20260505220007 | 49 | 347 | 6.0 | 9.0 | 0.00 | 0.00 | 0.00 | 78 | 1010.6 |
| 20260505215506 | 49 | 7 | 6.0 | 8.0 | 0.00 | 0.00 | 0.00 | 78 | 1010.6 |
| 20260505215007 | 49 | 3 | 5.0 | 9.0 | 0.00 | 0.00 | 0.00 | 78 | 1010.6 |
| 20260505214507 | 49 | 0 | 6.0 | 9.0 | 0.00 | 0.00 | 0.00 | 78 | 1010.6 |
| 20260505214006 | 49 | 0 | 4.0 | 9.0 | 0.00 | 0.00 | 0.00 | 78 | 1010.6 |
| 20260505213507 | 49 | 353 | 5.0 | 8.0 | 0.00 | 0.00 | 0.00 | 78 | 1010.6 |
| 20260505213006 | 49 | 355 | 5.0 | 9.0 | 0.00 | 0.00 | 0.00 | 78 | 1010.7 |
| 20260505212506 | 49 | 355 | 4.0 | 8.0 | 0.00 | 0.00 | 0.00 | 78 | 1010.7 |
| 20260505212007 | 49 | 355 | 3.0 | 7.0 | 0.00 | 0.00 | 0.00 | 78 | 1010.7 |
| 20260505204506 | 50 | 359 | 4.0 | 8.0 | 0.00 | 0.00 | 0.00 | 78 | 1010.9 |
| 20260505204006 | 50 | 3 | 3.0 | 9.0 | 0.00 | 0.00 | 0.00 | 77 | 1011.0 |
| 20260505203506 | 50 | 355 | 5.0 | 8.0 | 0.00 | 0.00 | 0.00 | 77 | 1010.9 |
| 20260505203006 | 50 | 3 | 3.0 | 7.0 | 0.00 | 0.00 | 0.00 | 77 | 1010.9 |